Location: Rounton
(54.4000°N, 1.3500°W)
Time: 21:22:58
(UTC+01:00)

deb Delta 126 - Pass Details

Date: 08 July 2022
Orbit: 1120 x 1970 km, 101.5° (Epoch: 17 August)

Event Time Altitude Azimuth Distance (km) Brightness Sun altitude
Rises 01:18:34 0° 39° (NE) 5,005 ? -13.1°
Reaches altitude 10° 01:22:23 10° 25° (NNE) 4,130 ? -13.1°
Maximum altitude 01:29:10 21° 342° (NNW) 3,458 ? -13.0°
Drops below altitude 10° 01:36:19 10° 300° (WNW) 4,386 ? -12.9°
Sets 01:40:33 0° 287° (WNW) 5,402 ? -12.8°
